Forside
METAR-TAF:

METAR-TAF

Lufthavne :

Taylor County Airport

Medford, Wisconsin, USA

Breddekreds: 45-06-04N, længdekreds: 090-18-12W, højde: 448 m

Aktuelle vejr

Denne rapport blev lavet for 12 minutter siden, kl. 01:55 UTC
Vind 6 kt fra syd
Temperatur 20°C
Fugtighed 78%
Tryk 1012 hPa
Sigt: 16.1 km
skyfri

METAR: KMDZ 250155Z AUTO 17006KT 10SM CLR 20/16 A2988 RMK AO2 T01950161

Tid: 21:07 (02:07 UTC)


TAF: fraværende

Vejrobservationer og prognoser fra mere end 4000 lufthavne (METAR og TAF).

De gule og røde prikker repræsenterer de meteorologiske stationer.

Flyt musen over at se navnet på stationen.

Så klik over at se vejr observationer og prognoser.

At skifte det kort: Klik på de grønne knapper med et sort kors for at zoome ind; på den grønne knap med en bindestreg for at zoome ud; eller på de grønne pile for tilstødende kort.


METAR-TAF: